Dickinson, ND

1:50 AM MDT on April 22, 2018 (GMT -0600)
Dickinson Municipal

Weather History for KDIK - November, 2013

Change the Weather History Date:

Saturday, November 2, 2013

  Actual Average Record
Temperature  
Mean Temperature 41 °F 36 °F  
Max Temperature 57 °F 48 °F 79 °F (1965)
Min Temperature 25 °F 25 °F -8 °F (1951)
Degree Days  
Heating Degree Days 24 29  
Month to date heating degree days 49 57  
Since 1 July heating degree days 930 1068  
Cooling Degree Days 0 0  
Month to date cooling degree days 0 0  
Year to date cooling degree days 386 419  
Moisture  
Dew Point 26 °F    
Average Humidity 57    
Maximum Humidity 81    
Minimum Humidity 32    
Precipitation  
Precipitation 0.00 in 0.02 in 1.11 in (1944)
Month to date precipitation 0.02 0.05  
Year to date precipitation 20.96 15.04  
Sea Level Pressure  
Sea Level Pressure 29.93 in    
Wind  
Wind Speed 11 mph (SSE)    
Max Wind Speed 21 mph    
Max Gust Speed 26 mph    
Visibility 10 miles    
Events      
T = Trace of Precipitation, MM = Missing Value Source: NWS Daily Summary

Daily Weather History Graph

Daily Weather History Graph

Search for Another Location

Airport or City:

Astronomy

Nov. 02, 2013 Rise Set
Actual Time 7:35 AM MDT 5:33 PM MDT
Civil Twilight 7:03 AM MDT 6:05 PM MDT
Nautical Twilight 6:27 AM MDT 6:41 PM MDT
Astronomical Twilight 5:52 AM MDT 7:16 PM MDT
Moon 6:32 AM MDT (11/2) 5:07 PM MDT (11/2)
Length of Visible Light 11h 01m
Length of Day
9h 58m
Waning Crescent, 1% of the Moon is Illuminated
Nov 2
Waning Crescent
Nov 3
New
Nov 9
First Quarter
Nov 17
Full
Nov 25
Last Quarter

Hourly Weather History & Observations

Time (MDT) Temp. Windchill Dew Point Humidity Pressure Visibility Wind Dir Wind Speed Gust Speed Precip Events Conditions
12:56 AM 30.0 °F 22.4 °F 23.0 °F 75% 30.09 in 10.0 mi West 8.1 mph - N/A   Clear
1:56 AM 30.0 °F 21.7 °F 23.0 °F 75% 30.09 in 10.0 mi West 9.2 mph - N/A   Clear
2:56 AM 30.9 °F 22.2 °F 23.0 °F 72% 30.09 in 10.0 mi West 10.4 mph - N/A   Clear
3:56 AM 28.9 °F 21.1 °F 21.9 °F 75% 30.08 in 10.0 mi West 8.1 mph - N/A   Clear
4:56 AM 28.0 °F 20.8 °F 21.0 °F 75% 30.09 in 10.0 mi West 6.9 mph - N/A   Clear
5:56 AM 27.0 °F 21.6 °F 21.0 °F 78% 30.10 in 10.0 mi West 4.6 mph - N/A   Clear
6:56 AM 28.0 °F 21.7 °F 21.9 °F 78% 30.09 in 10.0 mi WSW 5.8 mph - N/A   Clear
7:56 AM 26.1 °F 20.5 °F 21.0 °F 81% 30.10 in 10.0 mi SSW 4.6 mph - N/A   Clear
8:56 AM 33.1 °F - 27.0 °F 78% 30.09 in 10.0 mi Calm Calm - N/A   Clear
9:56 AM 42.1 °F - 30.9 °F 65% 30.06 in 10.0 mi Calm Calm - N/A   Clear
10:56 AM 51.1 °F - 27.0 °F 39% 30.03 in 10.0 mi SSE 9.2 mph - N/A   Clear
11:56 AM 53.1 °F - 27.0 °F 37% 30.00 in 10.0 mi SE 12.7 mph 19.6 mph N/A   Clear
12:56 PM 54.0 °F - 27.0 °F 35% 29.97 in 10.0 mi SSE 13.8 mph - N/A   Clear
1:56 PM 55.0 °F - 27.0 °F 34% 29.92 in 10.0 mi SSE 15.0 mph - N/A   Clear
2:56 PM 55.9 °F - 26.1 °F 32% 29.87 in 10.0 mi SE 18.4 mph 23.0 mph N/A   Clear
3:56 PM 53.1 °F - 27.0 °F 37% 29.85 in 10.0 mi SE 12.7 mph - N/A   Scattered Clouds
4:56 PM 51.1 °F - 28.0 °F 41% 29.83 in 10.0 mi SE 13.8 mph - N/A   Mostly Cloudy
5:56 PM 46.0 °F 41.0 °F 28.0 °F 50% 29.83 in 10.0 mi ESE 10.4 mph - N/A   Mostly Cloudy
6:56 PM 44.1 °F 37.4 °F 27.0 °F 51% 29.79 in 10.0 mi ESE 13.8 mph - N/A   Partly Cloudy
7:56 PM 44.1 °F 36.8 °F 28.9 °F 55% 29.77 in 10.0 mi SE 16.1 mph - N/A   Clear
8:56 PM 43.0 °F 35.1 °F 28.0 °F 56% 29.73 in 10.0 mi SE 17.3 mph 24.2 mph N/A   Clear
9:56 PM 41.0 °F 33.1 °F 27.0 °F 57% 29.69 in 10.0 mi ESE 15.0 mph - N/A   Clear
10:56 PM 42.1 °F 33.9 °F 27.0 °F 55% 29.62 in 10.0 mi ESE 17.3 mph - N/A   Clear
11:56 PM 41.0 °F 32.8 °F 26.1 °F 55% 29.57 in 10.0 mi SE 16.1 mph - N/A   Clear